TimeCDT,TemperatureF,Dew PointF,Humidity,Sea Level PressureIn,VisibilityMPH,Wind Direction,Wind SpeedMPH,Gust SpeedMPH,PrecipitationIn,Events,Conditions,WindDirDegrees,DateUTC
12:53 AM,44.1,33.1,65,30.17,10.0,Calm,Calm,-,N/A,,Clear,0,2013-04-27 05:53:00
1:53 AM,37.9,33.1,83,30.16,10.0,Calm,Calm,-,N/A,,Clear,0,2013-04-27 06:53:00
2:53 AM,37.0,32.0,82,30.14,10.0,Calm,Calm,-,N/A,,Clear,0,2013-04-27 07:53:00
3:53 AM,35.1,32.0,89,30.14,10.0,Calm,Calm,-,N/A,,Clear,0,2013-04-27 08:53:00
4:53 AM,35.1,32.0,89,30.13,10.0,Calm,Calm,-,N/A,,Clear,0,2013-04-27 09:53:00
5:53 AM,36.0,32.0,86,30.12,10.0,Calm,Calm,-,N/A,,Clear,0,2013-04-27 10:53:00
6:53 AM,32.0,30.0,92,30.14,8.0,Calm,Calm,-,N/A,,Clear,0,2013-04-27 11:53:00
7:53 AM,39.0,36.0,89,30.13,10.0,Calm,Calm,-,N/A,,Clear,0,2013-04-27 12:53:00
8:53 AM,46.9,37.9,71,30.13,10.0,Calm,Calm,-,N/A,,Clear,0,2013-04-27 13:53:00
9:53 AM,57.9,41.0,53,30.11,10.0,Calm,Calm,-,N/A,,Clear,0,2013-04-27 14:53:00
10:53 AM,64.9,43.0,45,30.09,10.0,SSE,3.5,-,N/A,,Clear,150,2013-04-27 15:53:00
11:53 AM,71.1,41.0,34,30.07,10.0,South,10.4,-,N/A,,Clear,180,2013-04-27 16:53:00
12:53 PM,72.0,35.1,26,30.05,10.0,SW,4.6,-,N/A,,Clear,220,2013-04-27 17:53:00
1:53 PM,73.9,35.1,24,30.02,10.0,Variable,5.8,-,N/A,,Clear,0,2013-04-27 18:53:00
2:53 PM,75.9,35.1,23,29.99,10.0,West,9.2,-,N/A,,Clear,260,2013-04-27 19:53:00
3:53 PM,77.0,35.1,22,29.96,10.0,South,11.5,17.3,N/A,,Partly Cloudy,190,2013-04-27 20:53:00
4:53 PM,77.0,32.0,19,29.92,10.0,SSW,10.4,16.1,N/A,,Clear,200,2013-04-27 21:53:00
5:53 PM,78.1,34.0,20,29.89,10.0,South,15.0,18.4,N/A,,Clear,190,2013-04-27 22:53:00
6:53 PM,77.0,36.0,23,29.88,10.0,South,12.7,-,N/A,,Clear,170,2013-04-27 23:53:00
7:53 PM,72.0,37.0,28,29.88,10.0,South,9.2,-,N/A,,Clear,170,2013-04-28 00:53:00
8:53 PM,66.9,37.9,34,29.88,10.0,South,11.5,-,N/A,,Clear,180,2013-04-28 01:53:00
9:53 PM,62.1,39.9,44,29.89,10.0,South,11.5,-,N/A,,Clear,190,2013-04-28 02:53:00
10:53 PM,57.9,41.0,53,29.89,10.0,SSW,9.2,-,N/A,,Clear,200,2013-04-28 03:53:00
11:53 PM,57.9,41.0,53,29.88,10.0,South,5.8,-,N/A,,Clear,180,2013-04-28 04:53:00